Date String (YYYY-MM-DD hh:mm:ss) UTC,Instrument flags,Ambient pressure (hPa),Sample flow (lpm),Bypass flow (lpm),Sample temperature (°C),Ambient temperature (°C),ASC tube jacket temperature (°C),LED temperature (°C),Box temperature (°C),Sample RH (%),Span deviation,Mass concentration (μg/m³),Mass concentration (μg/m³),Mass concentration (μg/m³)
DateTimeUTC,F1_M11,P_M11,Q1_M11,Q2_M11,T1_M11,T2_M11,T3_M11,T4_M11,T5_M11,U1_M11,ZSPAN_M11,X0_M11,X2_M11,X1_M11
2022-04-25 01:00:00,,0829.5,5.01,0.00,24.5,23.6,00.0,33.6,26.1,16.2,0000.0,0001.73,0000.98,0000.71
2022-04-25 01:01:00,,0829.5,4.99,0.00,24.5,23.5,00.0,33.6,26.1,16.2,0000.0,0001.76,0000.98,0000.71
2022-04-25 01:02:00,,0829.5,5.00,0.00,24.4,23.5,00.0,33.6,26.1,16.3,0000.0,0001.81,0001.00,0000.72
2022-04-25 01:03:00,,0829.5,5.00,0.00,24.4,23.5,00.0,33.6,26.1,16.3,0000.0,0001.83,0001.04,0000.73
2022-04-25 01:04:00,,0829.5,5.00,0.00,24.4,23.5,00.0,33.5,26.1,16.4,0000.0,0001.84,0001.06,0000.73
2022-04-25 01:05:00,,0829.6,5.00,0.00,24.4,23.5,00.0,33.5,26.1,16.5,0000.0,0001.80,0001.04,0000.72
2022-04-25 01:06:00,,0829.6,5.01,0.00,24.4,23.5,00.0,33.5,26.1,16.6,0000.0,0001.85,0001.06,0000.72
2022-04-25 01:07:00,,0829.5,5.00,0.00,24.4,23.4,00.0,33.5,26.1,16.6,0000.0,0001.92,0001.09,0000.73
2022-04-25 01:08:00,,0829.6,5.00,0.00,24.4,23.4,00.0,33.5,26.0,16.5,0000.0,0001.91,0001.10,0000.74
2022-04-25 01:09:00,,0829.6,5.00,0.00,24.3,23.4,00.0,33.5,26.0,16.5,0000.0,0002.02,0001.12,0000.74
2022-04-25 01:10:00,,0829.6,5.01,0.00,24.3,23.4,00.0,33.5,26.0,16.5,0000.0,0002.12,0001.12,0000.74
2022-04-25 01:11:00,,0829.6,5.00,0.00,24.3,23.4,00.0,33.4,26.0,16.6,0000.0,0001.97,0001.06,0000.74
2022-04-25 01:12:00,,0829.7,5.00,0.00,24.3,23.3,00.0,33.4,26.0,16.7,0000.0,0001.98,0001.07,0000.74
2022-04-25 01:13:00,,0829.7,5.00,0.00,24.3,23.3,00.0,33.4,26.0,16.7,0000.0,0002.00,0001.08,0000.74
2022-04-25 01:14:00,,0829.7,5.00,0.00,24.3,23.3,00.0,33.4,26.0,16.8,0000.0,0001.99,0001.08,0000.75
2022-04-25 01:15:00,,0829.8,5.01,0.00,24.2,23.3,00.0,33.4,25.9,16.9,0000.0,0002.00,0001.09,0000.77
2022-04-25 01:16:00,,0829.8,5.00,0.00,24.2,23.2,00.0,33.3,25.8,16.9,0000.0,0002.12,0001.13,0000.79
2022-04-25 01:17:00,,0829.8,5.00,0.00,24.2,23.2,00.0,33.3,25.8,17.0,0000.0,0002.28,0001.20,0000.81
2022-04-25 01:18:00,,0829.8,5.00,0.00,24.2,23.2,00.0,33.3,25.8,17.1,0000.0,0002.24,0001.20,0000.82
2022-04-25 01:19:00,,0829.8,5.00,0.00,24.1,23.2,00.0,33.3,25.7,17.1,0000.0,0002.27,0001.22,0000.83
2022-04-25 01:20:00,,0829.7,5.00,0.00,24.1,23.2,00.0,33.3,25.7,17.1,0000.0,0002.17,0001.20,0000.84
2022-04-25 01:21:00,,0829.8,5.00,0.00,24.1,23.2,00.0,33.3,25.7,17.1,0000.0,0002.03,0001.20,0000.85
2022-04-25 01:22:00,,0829.7,5.00,0.00,24.1,23.1,00.0,33.2,25.7,17.1,0000.0,0002.09,0001.23,0000.87
2022-04-25 01:23:00,,0829.7,5.01,0.00,24.1,23.1,00.0,33.2,25.6,17.1,0000.0,0002.26,0001.27,0000.88
2022-04-25 01:24:00,,0829.7,5.01,0.00,24.1,23.1,00.0,33.2,25.7,17.1,0000.0,0002.43,0001.28,0000.90
2022-04-25 01:25:00,,0829.7,5.00,0.00,24.1,23.1,00.0,33.2,25.6,17.1,0000.0,0002.43,0001.30,0000.92
2022-04-25 01:26:00,,0829.7,5.01,0.00,24.1,23.1,00.0,33.2,25.7,17.1,0000.0,0002.32,0001.28,0000.92
2022-04-25 01:27:00,,0829.8,5.00,0.00,24.0,23.1,00.0,33.2,25.6,17.1,0000.0,0002.23,0001.26,0000.93
2022-04-25 01:28:00,,0829.8,4.99,0.00,24.0,23.1,00.0,33.2,25.6,17.2,0000.0,0002.06,0001.22,0000.94
2022-04-25 01:29:00,,0829.8,5.00,0.00,24.0,23.0,00.0,33.1,25.6,17.2,0000.0,0002.05,0001.21,0000.94
2022-04-25 01:30:00,,0829.8,5.00,0.00,24.0,23.1,00.0,33.1,25.6,17.2,0000.0,0002.02,0001.18,0000.94
2022-04-25 01:31:00,,0829.8,5.01,0.00,24.0,23.0,00.0,33.1,25.6,17.1,0000.0,0002.00,0001.18,0000.94
2022-04-25 01:32:00,,0829.8,5.00,0.00,24.0,23.0,00.0,33.1,25.6,17.2,0000.0,0002.04,0001.20,0000.95
2022-04-25 01:33:00,,0829.8,5.01,0.00,24.0,23.0,00.0,33.1,25.6,17.2,0000.0,0002.13,0001.22,0000.95
2022-04-25 01:34:00,,0829.8,5.00,0.00,24.0,23.0,00.0,33.1,25.6,17.2,0000.0,0002.06,0001.21,0000.96
2022-04-25 01:35:00,,0829.9,5.00,0.00,24.0,23.0,00.0,33.1,25.6,17.2,0000.0,0002.02,0001.25,0000.95
2022-04-25 01:36:00,,0830.0,5.00,0.00,24.0,23.0,00.0,33.1,25.6,17.2,0000.0,0001.97,0001.22,0000.94
2022-04-25 01:37:00,,0830.0,5.00,0.00,23.9,23.0,00.0,33.0,25.5,17.2,0000.0,0001.97,0001.22,0000.94
2022-04-25 01:38:00,,0830.0,5.00,0.00,23.9,23.0,00.0,33.0,25.5,17.1,0000.0,0002.06,0001.24,0000.94
2022-04-25 01:39:00,,0830.0,5.00,0.00,23.9,23.0,00.0,33.0,25.5,17.1,0000.0,0002.18,0001.28,0000.94
2022-04-25 01:40:00,,0830.0,5.01,0.00,23.9,23.0,00.0,33.0,25.5,17.1,0000.0,0002.18,0001.29,0000.94
2022-04-25 01:41:00,,0830.0,5.00,0.00,23.9,23.0,00.0,33.0,25.6,17.0,0000.0,0002.14,0001.28,0000.94
2022-04-25 01:42:00,,0830.0,5.00,0.00,23.9,22.9,00.0,33.0,25.5,17.0,0000.0,0002.18,0001.28,0000.94
2022-04-25 01:43:00,,0830.0,4.99,0.00,23.9,22.9,00.0,33.0,25.4,16.9,0000.0,0002.42,0001.29,0000.95
2022-04-25 01:44:00,,0830.0,5.00,0.00,23.9,22.9,00.0,33.0,25.4,16.8,0000.0,0002.43,0001.28,0000.95
2022-04-25 01:45:00,,0830.0,5.00,0.00,23.9,22.9,00.0,33.0,25.5,16.6,0000.0,0002.36,0001.30,0000.95
2022-04-25 01:46:00,,0830.0,5.00,0.00,23.9,22.9,00.0,33.0,25.5,16.5,0000.0,0002.30,0001.29,0000.96
2022-04-25 01:47:00,,0830.0,5.00,0.00,23.8,22.9,00.0,33.0,25.4,16.4,0000.0,0002.34,0001.31,0000.95
2022-04-25 01:48:00,,0830.0,4.99,0.00,23.8,22.8,00.0,33.0,25.4,16.2,0000.0,0002.50,0001.37,0000.96
2022-04-25 01:49:00,,0830.0,5.01,0.00,23.8,22.8,00.0,32.9,25.4,16.2,0000.0,0002.55,0001.42,0000.97
2022-04-25 01:50:00,,0830.1,5.01,0.00,23.8,22.8,00.0,32.9,25.4,16.3,0000.0,0002.53,0001.43,0000.97
2022-04-25 01:51:00,,0830.1,5.00,0.00,23.8,22.8,00.0,32.9,25.3,16.2,0000.0,0002.43,0001.39,0000.97
2022-04-25 01:52:00,,0830.1,4.99,0.00,23.8,22.8,00.0,32.9,25.3,16.3,0000.0,0002.78,0001.39,0000.97
2022-04-25 01:53:00,,0830.1,5.00,0.00,23.8,22.7,00.0,32.9,25.4,16.2,0000.0,0003.26,0001.43,0000.98
2022-04-25 01:54:00,,0830.1,5.00,0.00,23.8,22.8,00.0,32.9,25.4,16.3,0000.0,0003.36,0001.48,0000.99
2022-04-25 01:55:00,,0830.1,5.01,0.00,23.8,22.7,00.0,32.9,25.2,16.4,0000.0,0003.18,0001.48,0000.99
2022-04-25 01:56:00,,0830.2,5.01,0.00,23.8,22.7,00.0,32.9,25.3,16.3,0000.0,0003.52,0001.50,0001.00
2022-04-25 01:57:00,,0830.2,5.00,0.00,23.8,22.7,00.0,32.9,25.3,16.4,0000.0,0003.77,0001.47,0000.99
2022-04-25 01:58:00,,0830.2,5.00,0.00,23.8,22.7,00.0,32.9,25.4,16.3,0000.0,0003.78,0001.45,0001.00
2022-04-25 01:59:00,,0830.2,4.99,0.00,23.8,22.7,00.0,32.9,25.5,16.1,0000.0,0003.82,0001.44,0000.99
